Location: ????????
(55.1591°N, 39.1782°E)
Time: 14:20:34
(UTC+00:00)

Cosmos 2360 Rocket - Pass Details

Date: 14 April 2024
Orbit: 832 x 846 km, 71.0° (Epoch: 23 May)

Event Time Altitude Azimuth Distance (km) Brightness Sun altitude
Exits shadow 00:09:56 23° 251° (WSW) 1,711 3.3 -16.6°
Maximum altitude 00:13:11 48° 314° (NW) 1,095 2.8 -16.3°
Drops below altitude 10° 00:18:39 10° 29° (NNE) 2,467 5.8 -15.7°
Sets 00:21:13 0° 35° (NE) 3,407 7.1 -15.5°
